Aérodrome :
LOGIN :

S'inscrire | Disclaimer

   EN    FR    IT 

 










Légende :    VFR   VFR Marginal   IFR   IFR Intensif   IFR Très Intensif
Visi : 
Plafond : 
>= 8 km
>= 3000ft
5 à 8 km
1000 à 3000 ft
1500m à 5 km
500 à 1000 ft
800 à 1500m
200 à 500 ft
< 800m
< 200 ft
Symboles :   Orages  Brouillard  Fortes neiges  Fortes précipitations  Vent > 20 kt
SIGMETs :   Divers  Orages  Givrage  Turbulence  Onde Orograph.  Cendres Volcan.






- Altitude de l'aérodrome : 49 ft
- Code IATA : GLZ


EHGR - Gilze-Rijen Airbase

DERNIER METAR :
  • 311855Z AUTO 27004KT 9999 NCD 19/13 Q1009 BLU

METARs EXPIRÉS :
  • 311825Z AUTO 27005KT 230V300 9999 NCD 19/12 Q1009 BLU
  • 311755Z AUTO 26007KT 220V290 9999 FEW032 20/12 Q1009 BLU
  • 311725Z AUTO 27007KT 240V320 9999 SCT033 20/12 Q1009 BLU
  • 311655Z AUTO 28009KT 230V310 9999 FEW030 SCT036 20/12 Q1009 BLU
  • 311625Z AUTO 28010KT 250V320 9999 FEW030 SCT035 20/13 Q1009 BLU

Prévision TAF périmée.



MET'MAP, la Météo Aéronautique d'un coup d'oeil ! - Copyright ORBIFLY Décembre 2007 - Disclaimer

ORBIFLY MET'MAP TEAM :

Programmation & Développement : Alexandra Zaïnal
Sur une idée originale de : Baudouin d'Aumeries
Assistance à la programmation : Marc-Olivier Méhu
Soutien technique & logistique : Manuel Goepfert

Contact : metmap@orbifly.com




SOURCES & CREDITS :

   NOAA